TimeEDT,TemperatureF,Dew PointF,Humidity,Sea Level PressureIn,VisibilityMPH,Wind Direction,Wind SpeedMPH,Gust SpeedMPH,PrecipitationIn,Events,Conditions,WindDirDegrees,DateUTC
12:56 AM,72.0,70.0,93,29.88,8.0,South,6.9,-,N/A,,Overcast,170,2013-04-12 04:56:00
1:56 AM,72.0,70.0,93,29.87,8.0,South,9.2,-,0.01,,Overcast,180,2013-04-12 05:56:00
2:17 AM,73.4,71.6,94,29.87,8.0,South,10.4,-,N/A,,Overcast,180,2013-04-12 06:17:00
2:56 AM,73.0,71.1,93,29.87,9.0,SSW,9.2,-,0.03,Rain,Light Rain,200,2013-04-12 06:56:00
3:56 AM,73.0,71.1,93,29.82,8.0,South,11.5,-,N/A,,Overcast,170,2013-04-12 07:56:00
4:41 AM,73.4,71.6,94,29.80,10.0,South,16.1,-,N/A,,Overcast,180,2013-04-12 08:41:00
4:56 AM,73.0,71.1,93,29.79,10.0,South,15.0,23.0,N/A,,Overcast,180,2013-04-12 08:56:00
5:56 AM,73.0,70.0,90,29.77,10.0,South,13.8,-,N/A,,Overcast,180,2013-04-12 09:56:00
6:56 AM,73.0,70.0,90,29.77,10.0,South,10.4,-,N/A,,Mostly Cloudy,190,2013-04-12 10:56:00
7:21 AM,73.4,69.8,88,29.79,10.0,SSW,10.4,17.3,N/A,,Overcast,200,2013-04-12 11:21:00
7:45 AM,73.4,69.8,88,29.79,10.0,South,8.1,-,N/A,,Overcast,190,2013-04-12 11:45:00
7:56 AM,73.0,70.0,90,29.80,10.0,South,9.2,-,N/A,,Mostly Cloudy,190,2013-04-12 11:56:00
8:56 AM,75.0,71.1,87,29.81,10.0,SSW,10.4,-,N/A,,Overcast,200,2013-04-12 12:56:00
9:56 AM,78.1,72.0,81,29.82,10.0,SSW,13.8,-,N/A,,Mostly Cloudy,210,2013-04-12 13:56:00
10:56 AM,82.0,71.1,69,29.81,10.0,SW,16.1,23.0,N/A,,Mostly Cloudy,220,2013-04-12 14:56:00
11:56 AM,84.0,69.1,61,29.83,10.0,SW,13.8,25.3,N/A,,Mostly Cloudy,230,2013-04-12 15:56:00
12:56 PM,88.0,69.1,53,29.81,10.0,SW,19.6,24.2,N/A,,Mostly Cloudy,220,2013-04-12 16:56:00
1:56 PM,88.0,66.0,48,29.80,10.0,SW,18.4,27.6,N/A,,Mostly Cloudy,230,2013-04-12 17:56:00
2:56 PM,89.1,63.0,42,29.79,10.0,SW,20.7,33.4,N/A,,Overcast,220,2013-04-12 18:56:00
3:56 PM,87.1,63.0,44,29.78,10.0,SW,24.2,35.7,N/A,,Overcast,230,2013-04-12 19:56:00
4:56 PM,84.0,66.0,55,29.78,10.0,SW,18.4,28.8,N/A,,Overcast,230,2013-04-12 20:56:00
5:56 PM,81.0,66.9,62,29.81,10.0,West,15.0,23.0,N/A,,Overcast,260,2013-04-12 21:56:00
6:56 PM,78.1,64.0,62,29.82,10.0,WSW,11.5,-,N/A,,Overcast,240,2013-04-12 22:56:00
7:56 PM,75.9,64.9,69,29.83,10.0,SW,6.9,-,N/A,,Overcast,230,2013-04-12 23:56:00
8:56 PM,73.0,64.9,76,29.86,10.0,SSW,5.8,-,N/A,,Overcast,210,2013-04-13 00:56:00
9:19 PM,73.4,64.4,73,29.87,10.0,SSW,5.8,-,N/A,,Overcast,200,2013-04-13 01:19:00
9:48 PM,73.4,64.4,73,29.88,10.0,South,8.1,-,N/A,,Overcast,190,2013-04-13 01:48:00
9:56 PM,73.9,64.9,73,29.88,10.0,SSW,6.9,-,N/A,,Overcast,200,2013-04-13 01:56:00
10:56 PM,73.0,64.9,76,29.88,10.0,Calm,Calm,-,N/A,,Overcast,0,2013-04-13 02:56:00
11:56 PM,72.0,64.9,78,29.89,10.0,NW,9.2,-,0.00,Rain,Light Rain,310,2013-04-13 03:56:00